STARLINK-35746, 66582

Orbit data source: Space-Track

STARLINK-35746, 66582 is a payload satellite owned by SpaceX/Seattle (US) in LEO that was launched on Fri, 21 Nov 2025 UTC via an FALCON 9 launch vehicle from the Air Force Eastern Test Range (AFETR). Payload-class satellites include a variety of spacecraft equipped with specific instruments for various scientific and technological missions. These include communications satellites like Starlink; space stations such as the ISS; scientific satellites like the Hubble; Earth observation satellites from companies like Planet Labs, Umbra, and HawkEye 360; GPS; miniature CubeSats for education and research; and military/defense satellites.

Loading next visibility...
Identifier
66582, 2025-268AB
Orbit
LEO
Country
Flag of USUS
Related business
Manufacturer
SpaceX/Seattle
Mission
Operational Commercial Communications
Bus & Motor
STARLINK V2MO, Unknown motor
Mass
575 kg wet, ~530 kg dry
Launch date (UTC)
2025-11-21 (7 months ago)
Launch vehicle
FALCON 9
Launch site
Air Force Eastern Test Range (AFETR)
Object type
Payload
Rocket body
Debris
Shape & HBR
Box + 2 Pan, 17.7 m
Radar Cross Section
36.964 m², Large (>1 m²)

Expand to show TLE details & history
Last TLE update: 14 hours ago

TLE from 14 hours ago
0 STARLINK-35746
1 66582U 25268AB  26171.28582625  .00012603  00000-0  46638-3 0  9997
2 66582  43.0014 127.3760 0001457 259.4193 100.6494 15.27604952 33659
Epoch: 2026-06-20T06:51Z
TLE epoch observation values (Epoch: 2026-06-20T06:51:35.387Z)
Latitude
-0.00008°
Longitude
115.97583°
Altitude
482.935 km
Speed
7.626 km/s
True Right ascension
08h 29m 30s
True Declination
0° 00' 00"
Sunlit
Object was in daylight at epoch
Visualization orbit readout
Latitude
Unknown
Longitude
Unknown
Altitude
Unknown
Speed
Unknown
Apparent Right ascension
Unknown
Apparent Declination
Unknown
Sunlit
N/A
Visualization observer readout
Local Sidereal Time
07:18:29
Azimuth
Unknown
Elevation
Unknown
Doppler factor
Unknown
Orbital elements
Apogee altitude
485.919 km
Perigee altitude
483.919 km
Semi-major axis
6,863.056 km
Eccentricity
0.00015
Inclination
43.0014°
RAAN
127.376°
Arg. of periapsis
259.4193°
True anomaly
100.66581°
Mean anomaly
100.6494°
Eccentric anomaly
100.6576°
Mean motion
3.81739 °/min
Orbital period
94.31 mins
BSTAR
0.00046638
Loading maneuver chart data...
Computing Atmospheric mass density...
Loading historical data...
Loading historical data...
Loading historical data...
Loading historical data...
Loading historical data...
Loading historical data...
Loading historical data...

Documentation

Showing up to 5 results
|